CAPE
6 6 8 25 0 0 5 0 0 4 12 0 0 0 0 0 0 0 0 0 0 0 0 0 0 0 0 0 0 0 0 0 0 1 0 0 0 0 0 0 0 0 0 0 0
36 8 0 0 32 0 0 1 5 9 4 0 0 0 0 0 0 0 0 0 0 0 0 0 0 0 0 0 0 0 0 0 0 0 0 0 0 0 0 0 0 0 0 0 0
32 11 0 0 15 12 0 1 22 65 36 0 0 0 0 0 0 0 0 0 0 0 0 0 0 0 0 0 0 0 0 0 0 0 0 0 0 0 0 0 0 0 0 0 12
17 0 7 0 0 19 8 0 18 33 40 21 12 0 0 0 0 0 0 0 0 0 0 0 0 0 0 0 0 0 0 0 0 0 0 0 0 0 0 0 0 0 0 0 24
0 26 0 0 0 1 32 0 13 2 75 51 24 25 0 0 0 0 0 0 0 0 0 0 0 0 0 0 0 0 0 0 0 0 0 0 0 0 0 0 0 0 0 0 0
0 0 27 0 0 1 8 26 16 21 31 28 0 6 3 1 0 0 0 0 0 0 0 0 0 0 0 0 0 0 0 0 0 0 0 0 0 0 0 0 0 0 0 0 0
0 0 0 5 0 4 36 80 11 61 82 41 1 1 0 0 0 0 0 0 0 0 0 0 0 0 0 0 0 0 0 0 0 0 0 0 0 0 0 0 0 0 0 0 0
0 0 0 0 1 2 0 53 27 16 62 43 0 0 0 0 0 0 0 0 0 0 0 0 0 0 0 0 0 0 0 0 0 0 0 0 0 0 0 0 0 0 0 0 0
0 0 0 0 26 0 8 8 7 36 79 30 0 0 0 0 0 0 0 0 0 0 0 0 0 0 0 0 0 0 0 0 0 0 0 0 0 0 0 0 0 0 0 0 0
5 0 0 0 1 1 1 0 5 61 3 0 0 0 0 0 0 0 0 0 0 0 0 0 0 0 0 0 0 0 0 0 0 0 0 0 0 0 0 0 0 0 0 0 0
0 0 0 0 0 20 2 11 27 2 0 0 0 0 0 0 0 0 0 1 0 0 0 0 0 0 0 0 0 0 0 0 0 0 0 0 0 0 0 0 0 0 0 0 0
0 1 0 5 0 36 45 0 2 4 1 0 1 2 0 0 0 0 0 0 0 0 0 0 0 0 0 0 0 0 0 0 0 0 0 0 0 0 0 0 0 0 0 0 0
0 4 0 0 6 27 23 6 10 3 0 0 0 0 0 0 0 0 0 0 0 0 0 0 0 0 0 0 0 0 0 0 0 0 0 0 0 0 0 0 0 0 0 0 0
0 7 0 11 1 23 1 11 5 0 0 1 1 1 1 10 0 0 0 0 0 0 0 0 0 0 0 0 0 0 0 0 0 0 0 0 0 0 0 0 0 0 0 0 0
0 2 0 21 12 22 11 0 4 0 0 0 3 7 3 0 0 0 0 1 0 0 0 0 0 0 0 0 0 0 0 0 0 0 0 0 0 0 0 0 0 0 0 0 0
1 3 0 2 8 57 1 0 0 0 0 1 1 4 4 5 0 2 1 0 0 0 0 0 0 0 0 0 0 0 0 0 0 0 0 0 0 0 0 0 0 0 0 0 0
21 5 0 22 17 4 0 0 0 0 0 0 3 5 5 5 4 1 0 0 0 0 0 0 0 0 0 0 0 0 0 0 0 0 0 0 0 0 0 0 0 0 0 0 0
19 3 0 30 15 8 0 0 0 0 0 0 4 5 3 1 1 5 0 0 0 0 0 0 0 0 0 0 0 0 0 0 0 0 0 0 0 0 0 0 0 0 0 0 0
7 12 7 15 17 0 0 0 0 0 0 0 2 1 1 0 0 4 3 0 0 0 0 0 0 0 0 0 0 0 0 0 0 0 0 0 0 0 0 0 0 0 0 0 0
6 1 13 45 15 0 0 0 0 0 1 0 0 0 0 1 0 4 5 0 0 0 0 0 0 1 0 0 0 0 0 0 0 0 0 0 0 0 0 0 0 0 0 0 0
1 0 15 31 7 1 0 0 0 2 2 0 0 0 1 3 1 3 0 0 0 0 0 0 0 2 0 0 0 0 0 0 0 0 0 0 0 0 0 0 0 0 0 0 0
0 0 4 15 0 0 0 0 0 2 1 1 0 0 0 4 2 1 1 0 0 0 0 0 0 0 0 0 0 0 0 0 0 0 0 0 0 0 0 0 0 0 0 0 0
0 1 3 6 0 0 0 0 4 5 0 0 0 0 0 0 1 0 0 0 0 0 0 0 0 0 1 0 0 0 0 0 0 0 0 0 0 0 0 0 0 0 0 0 0
0 0 0 5 1 0 0 0 0 5 0 0 0 0 0 0 1 1 0 0 0 0 0 0 0 0 0 0 0 0 0 0 0 0 0 0 0 0 0 0 0 0 0 0 0
0 0 0 0 0 0 0 0 1 0 7 1 0 0 0 2 0 1 0 0 0 0 0 0 0 0 0 0 0 0 0 0 0 0 0 0 0 0 0 0 0 0 0 0 0
0 0 0 0 0 0 0 0 0 0 0 0 1 2 12 17 15 1 0 0 0 2 0 0 0 0 0 0 0 0 0 0 0 0 0 0 0 0 0 0 0 0 0 0 0
0 0 0 0 0 0 0 0 0 0 0 1 0 0 13 11 2 0 0 0 0 0 0 0 0 0 0 0 0 0 0 0 0 0 0 0 0 0 0 0 0 0 0 0 0
CIN
-40 -0 -0 -5 -0 -0 -0 -0 -0 -3 -0 -0 -0 -0 -0 -0 -0 -0 -0 -0 -0 -0 -0 -0 -0 -0 -0 -0 -0 -0 -0 -0 -0 -3 -0 -0 -0 -0 -0 -0 -0 -0 -0 -0 -0
-0 -0 -1 -0 -1 -0 -0 -0 -1 -13 -24 -0 -0 -0 -0 -0 -0 -0 -0 -0 -0 -0 -0 -0 -0 -0 -0 -0 -0 -0 -0 -0 -0 -0 -0 -0 -0 -0 -0 -0 -0 -0 -0 -0 -0
-0 -2 -0 -0 -2 -7 -0 -0 -4 -0 -24 -0 -0 -0 -0 -0 -0 -0 -0 -0 -0 -0 -0 -0 -0 -0 -0 -0 -0 -0 -0 -0 -0 -0 -0 -0 -0 -0 -0 -0 -0 -0 -0 -0 -205
-5 -0 -0 -0 -0 -8 -10 -0 -1 -2 -7 -21 -19 -2 -0 -0 -0 -0 -0 -0 -0 -0 -0 -0 -0 -0 -0 -0 -0 -0 -0 -0 -0 -0 -0 -0 -0 -0 -0 -0 -0 -0 -0 -0 -175
-1 -42 -0 -0 -0 -0 -2 -14 -1 -21 -0 -4 -14 -9 -0 -0 -0 -0 -0 -0 -0 -0 -0 -0 -0 -0 -0 -0 -0 -0 -0 -0 -0 -0 -0 -0 -0 -0 -0 -0 -0 -0 -0 -0 -0
-11 -0 -0 -0 -0 -0 -7 -7 -9 -27 -15 -3 -28 -15 -14 -0 -0 -0 -0 -0 -0 -0 -0 -0 -0 -0 -0 -0 -0 -0 -0 -0 -0 -0 -0 -0 -0 -0 -0 -0 -0 -0 -0 -0 -0
-0 -0 -0 -3 -0 -0 -2 -0 -20 -0 -0 -0 -11 -16 -0 -0 -0 -0 -0 -0 -0 -0 -0 -0 -0 -0 -0 -0 -0 -0 -0 -0 -0 -0 -0 -0 -0 -0 -0 -0 -0 -0 -0 -0 -0
-0 -0 -0 -0 -1 -0 -0 -1 -6 -15 -2 -2 -13 -4 -0 -0 -0 -0 -0 -0 -0 -0 -0 -0 -0 -0 -0 -0 -0 -0 -0 -0 -0 -0 -0 -0 -0 -0 -0 -0 -0 -0 -0 -0 -0
-0 -0 -8 -0 -0 -0 -6 -4 -11 -7 -1 -10 -0 -0 -0 -0 -0 -0 -0 -0 -0 -0 -0 -0 -0 -0 -0 -0 -0 -0 -0 -0 -0 -0 -0 -0 -0 -0 -0 -0 -0 -0 -0 -0 -0
-2 -0 -0 -0 -13 -7 -0 -0 -3 -0 -1 -3 -0 -0 -0 -0 -0 -0 -0 -0 -0 -0 -0 -0 -0 -0 -0 -0 -0 -0 -0 -0 -0 -0 -0 -0 -0 -0 -0 -0 -0 -0 -0 -0 -0
-0 -0 -0 -0 -0 -5 -26 -0 -0 -0 -0 -0 -0 -0 -0 -0 -0 -0 -0 -20 -0 -0 -0 -0 -0 -0 -0 -0 -0 -0 -0 -0 -0 -0 -0 -0 -0 -0 -0 -0 -0 -0 -0 -0 -0
-0 -0 -0 -23 -0 -2 -2 -0 -0 -1 -0 -0 -1 -0 -0 -0 -0 -0 -0 -0 -0 -0 -0 -0 -0 -0 -0 -0 -0 -0 -0 -0 -0 -0 -0 -0 -0 -0 -0 -0 -0 -0 -0 -0 -0
-0 -19 -0 -0 -26 -3 -3 -9 -14 -14 -0 -0 -0 -0 -0 -0 -0 -0 -0 -0 -0 -0 -0 -0 -0 -0 -0 -0 -0 -0 -0 -0 -0 -0 -0 -0 -0 -0 -0 -0 -0 -0 -0 -0 -0
-0 -25 -0 -8 -4 -6 -3 -7 -12 -0 -0 -0 -1 -1 -6 -3 -0 -0 -0 -0 -0 -0 -0 -0 -0 -0 -0 -0 -0 -0 -0 -0 -0 -0 -0 -0 -0 -0 -0 -0 -0 -0 -0 -0 -0
-0 -9 -0 -6 -7 -0 -2 -0 -6 -0 -0 -0 -0 -3 -8 -0 -0 -0 -0 -4 -0 -0 -0 -0 -0 -0 -0 -0 -0 -0 -0 -0 -0 -0 -0 -0 -0 -0 -0 -0 -0 -0 -0 -0 -0
-1 -9 -0 -29 -12 -2 -1 -0 -0 -0 -0 -0 -0 -1 -0 -0 -0 -1 -2 -0 -0 -0 -0 -0 -0 -0 -0 -0 -0 -0 -0 -0 -0 -0 -0 -0 -0 -0 -0 -0 -0 -0 -0 -0 -0
-8 -23 -0 -10 -9 -12 -0 -0 -0 -0 -0 -0 -0 -0 -0 -0 -0 -0 -0 -0 -0 -0 -0 -0 -0 -0 -0 -0 -0 -0 -0 -0 -0 -0 -0 -0 -0 -0 -0 -0 -0 -0 -0 -0 -0
-3 -25 -0 -17 -19 -16 -0 -0 -0 -0 -0 -0 -0 -0 -0 -0 -0 -0 -0 -0 -0 -0 -0 -0 -0 -0 -0 -0 -0 -0 -0 -0 -0 -0 -0 -0 -0 -0 -0 -0 -0 -0 -0 -0 -0
-12 -6 -8 -3 -9 -1 -0 -0 -0 -0 -0 -0 -1 -0 -0 -0 -0 -0 -0 -0 -0 -0 -0 -0 -0 -0 -0 -0 -0 -0 -0 -0 -0 -0 -0 -0 -0 -0 -0 -0 -0 -0 -0 -0 -0
-9 -5 -6 -0 -8 -0 -0 -0 -0 -0 -0 -0 -0 -0 -0 -0 -0 -0 -0 -0 -0 -0 -0 -0 -0 -0 -0 -0 -0 -0 -0 -0 -0 -0 -0 -0 -0 -0 -0 -0 -0 -0 -0 -0 -0
-28 -0 -7 -9 -26 -4 -0 -0 -0 -0 -0 -0 -0 -0 -0 -0 -1 -0 -0 -0 -0 -0 -0 -0 -0 -1 -0 -0 -0 -0 -0 -0 -0 -0 -0 -0 -0 -0 -0 -0 -0 -0 -0 -0 -0
-0 -0 -8 -8 -0 -0 -0 -0 -0 -0 -0 -0 -0 -0 -0 -0 -0 -0 -5 -0 -0 -0 -0 -0 -0 -0 -0 -0 -0 -0 -0 -0 -0 -0 -0 -0 -0 -0 -0 -0 -0 -0 -0 -0 -0
-0 -0 -7 -9 -0 -0 -0 -0 -0 -34 -0 -0 -0 -0 -0 -0 -0 -0 -0 -0 -0 -0 -0 -0 -0 -0 -1 -0 -0 -0 -0 -0 -0 -0 -0 -0 -0 -0 -0 -0 -0 -0 -0 -0 -0
-0 -0 -4 -3 -0 -0 -0 -0 -0 -46 -0 -0 -0 -0 -0 -0 -0 -0 -0 -0 -0 -0 -0 -0 -0 -0 -0 -0 -0 -0 -0 -0 -0 -0 -0 -0 -0 -0 -0 -0 -0 -0 -0 -0 -0
-0 -0 -0 -0 -0 -0 -0 -0 -0 -1 -2 -2 -0 -0 -0 -10 -0 -0 -0 -0 -0 -0 -0 -0 -0 -0 -0 -0 -0 -0 -0 -0 -0 -0 -0 -0 -0 -0 -0 -0 -0 -0 -0 -0 -0
-0 -0 -0 -0 -0 -0 -0 -0 -0 -0 -0 -0 -0 -9 -41 -31 -27 -0 -0 -0 -0 -0 -0 -0 -0 -0 -0 -0 -0 -0 -0 -0 -0 -0 -0 -0 -0 -0 -0 -0 -0 -0 -0 -0 -0
-0 -0 -0 -0 -0 -0 -0 -0 -0 -0 -0 -0 -0 -0 -24 -14 -2 -0 -0 -0 -0 -0 -0 -0 -0 -0 -0 -0 -0 -0 -0 -0 -0 -0 -0 -0 -0 -0 -0 -0 -0 -0 -0 -0 -0
Wind_Speed
34 32 35 34 34 33 36 37 27 23 15 15 17 22 22 21 25 26 31 25 21 20 21 22 21 19 17 15 16 16 18 20 19 12 8 3 7 9 11 8 11 12 13 10 9
30 32 30 29 34 34 31 33 33 27 16 14 15 17 19 22 24 27 25 29 23 21 19 19 17 19 16 16 17 17 19 18 15 12 8 6 6 9 10 8 9 11 11 11 11
32 28 30 28 27 31 34 32 32 25 16 18 18 17 20 22 26 29 21 21 24 24 21 21 20 20 17 18 17 18 19 14 14 14 15 9 12 8 12 10 8 7 8 9 10
30 29 25 25 27 27 30 35 34 26 20 20 18 17 22 22 32 23 18 17 22 24 21 17 19 19 17 18 18 19 17 17 16 16 16 12 15 13 15 13 14 5 7 7 7
26 28 28 28 27 33 29 32 31 34 26 19 15 14 19 26 28 16 17 17 16 18 23 20 18 19 19 16 17 20 16 16 15 15 15 15 16 15 16 12 12 12 4 4 4
25 25 25 24 26 30 30 31 34 30 26 30 25 21 24 34 24 18 18 18 18 17 19 20 19 18 17 16 20 18 15 14 16 15 16 18 17 17 18 16 12 13 10 4 2
25 26 26 23 21 25 25 22 23 29 28 23 19 21 24 28 22 22 21 19 17 17 17 16 16 18 15 16 16 15 17 18 18 17 18 19 24 22 18 14 16 14 15 11 3
26 26 28 25 23 22 21 21 20 23 24 23 22 22 31 22 27 26 23 19 18 17 15 13 14 14 17 12 15 16 19 20 17 18 20 19 25 19 17 16 20 19 12 10 9
26 24 26 26 25 24 19 21 18 16 16 17 25 27 30 18 25 25 25 22 17 15 15 13 14 17 16 18 19 19 23 21 20 22 20 22 26 22 20 21 23 23 18 15 11
26 24 21 22 24 20 22 20 12 8 6 11 22 29 30 30 22 19 24 20 20 16 18 19 18 21 21 22 28 23 23 21 22 19 23 26 33 27 24 23 24 23 22 18 13
26 24 23 22 24 22 17 13 16 16 18 23 30 26 21 18 17 18 18 23 21 23 28 25 27 31 24 23 24 21 24 23 19 21 24 29 35 36 30 26 27 26 24 22 16
25 23 22 21 22 21 16 14 14 15 23 19 19 28 18 22 24 21 21 23 25 29 25 28 37 28 25 25 28 28 28 25 23 23 27 34 40 38 35 35 30 28 27 24 18
25 20 21 23 23 23 19 15 15 13 22 25 21 26 22 26 28 29 24 21 27 31 31 31 30 29 27 25 26 28 29 29 30 26 28 35 42 41 36 30 28 25 25 23 20
24 18 19 20 20 23 21 14 15 17 26 28 26 26 21 24 30 24 28 22 25 32 29 34 26 25 27 29 27 32 26 25 27 30 35 27 39 29 23 23 25 26 23 23 22
23 15 14 19 19 24 17 9 13 15 41 19 24 13 17 26 23 30 26 28 29 24 25 30 28 27 28 28 24 29 20 22 25 29 32 30 34 31 19 23 22 17 17 19 18
20 13 12 18 17 19 15 7 13 23 36 22 17 23 21 25 25 21 26 23 23 22 24 27 24 24 26 21 19 14 13 17 22 26 38 30 29 33 24 22 17 16 16 19 19
14 11 11 13 20 13 14 15 22 33 17 22 23 21 22 25 23 24 29 31 29 28 28 22 25 23 19 18 16 18 19 28 32 32 37 26 27 33 22 20 17 16 18 17 17
12 10 14 13 7 15 15 22 31 26 22 17 17 19 27 21 22 21 27 32 33 31 29 31 33 25 21 23 24 20 22 27 33 33 32 26 33 31 21 20 20 19 19 17 16
10 13 13 9 5 11 20 31 23 20 19 16 15 24 24 23 19 21 27 30 29 28 30 30 30 22 19 22 16 24 28 22 25 27 32 30 31 28 21 22 21 19 19 17 16
14 12 13 11 11 16 22 27 22 22 21 20 20 24 28 26 23 24 24 26 28 26 21 24 30 24 23 21 23 23 19 27 27 34 39 35 35 33 25 22 19 18 19 17 16
13 16 15 10 10 19 29 29 21 20 22 23 20 22 25 26 23 24 23 16 19 23 21 19 23 26 23 30 27 25 27 27 25 30 38 39 36 25 20 17 17 19 19 16 14
15 20 16 14 23 22 26 26 21 17 18 17 16 15 19 25 25 25 25 20 17 19 23 18 17 24 28 22 22 26 26 26 32 35 33 33 33 18 17 17 18 20 19 16 14
16 18 16 18 28 28 26 26 23 23 21 23 21 20 16 22 27 25 26 26 17 17 21 20 22 27 28 29 26 29 29 28 27 26 32 33 30 18 18 20 20 21 19 16 14
14 20 21 22 22 27 28 28 25 21 26 23 22 19 20 21 25 25 23 24 20 19 20 20 24 28 34 31 24 31 29 29 29 33 31 34 31 26 25 26 26 23 19 16 16
15 19 20 26 29 26 27 26 27 25 25 26 27 25 21 22 23 24 23 24 24 23 28 23 26 24 22 20 20 22 26 29 33 31 34 31 33 30 28 27 24 21 19 17 15
11 15 18 22 19 25 26 31 32 29 27 31 28 27 24 23 21 24 22 24 25 26 27 25 26 25 27 26 25 28 27 29 32 34 38 38 39 30 27 26 21 20 18 17 16
16 17 17 20 22 24 30 29 31 31 29 27 28 28 27 23 19 19 22 23 23 25 26 24 24 23 28 25 26 36 30 30 32 32 34 39 38 30 32 32 26 19 18 17 17
Wind_Direction
269 271 267 261 254 255 247 249 259 261 264 241 247 245 254 261 255 253 248 249 258 268 272 268 267 272 272 278 275 273 268 267 272 282 285 308 291 324 326 352 345 325 333 64 80
274 269 273 273 254 252 250 244 248 253 274 263 254 258 264 267 251 246 249 247 255 266 267 269 268 268 268 273 271 266 264 274 288 300 302 284 300 297 299 337 335 352 6 61 82
265 274 277 271 270 251 248 245 244 243 253 262 265 265 273 270 252 248 252 253 255 260 261 262 265 263 265 265 266 265 265 281 287 291 286 274 287 304 291 303 331 356 42 68 81
268 271 278 278 270 264 248 239 240 243 253 247 252 261 273 259 241 255 257 258 248 245 257 268 259 262 263 260 262 262 270 277 281 282 278 278 281 287 281 308 323 29 73 72 77
279 271 273 274 274 267 253 245 245 236 242 250 251 274 270 250 249 273 260 260 260 258 248 257 260 259 260 263 263 262 270 277 281 280 281 281 278 283 285 308 321 335 45 52 49
279 276 276 279 273 267 262 244 243 241 246 242 250 254 259 245 262 262 258 254 257 256 256 253 259 260 264 265 261 268 271 276 277 280 281 277 281 285 288 292 308 309 314 337 354
285 279 271 275 278 269 266 248 251 245 238 236 242 245 249 252 258 257 254 255 254 256 254 261 263 258 265 264 269 268 268 271 273 279 281 280 272 276 287 302 298 304 299 305 312
289 283 255 266 267 274 276 252 248 246 241 236 237 249 252 264 254 254 248 251 253 257 259 261 263 264 263 268 271 269 272 269 271 275 279 279 273 283 288 291 290 294 304 306 304
287 288 260 253 257 261 284 266 247 248 242 237 234 238 240 251 246 247 242 244 247 250 258 259 260 260 260 255 262 264 266 266 273 272 280 273 274 281 288 288 288 290 299 303 305
287 281 281 272 262 270 268 278 230 222 215 256 246 240 236 240 241 243 246 244 244 242 249 252 257 254 254 250 252 260 265 274 273 278 273 273 269 280 287 289 290 291 295 301 301
285 280 277 267 257 257 262 246 228 241 238 242 235 243 238 236 235 239 240 238 243 241 243 246 248 245 248 251 259 269 271 271 281 281 282 279 276 273 282 286 287 289 291 294 300
279 277 273 265 260 248 254 243 246 249 232 249 263 241 246 236 238 236 234 236 235 237 241 245 246 250 254 254 258 264 269 270 282 286 286 283 276 279 280 279 283 286 287 290 296
271 278 271 259 252 238 238 239 253 253 240 249 258 239 249 242 239 229 233 246 239 238 238 243 255 249 249 249 253 262 265 269 274 286 289 287 282 279 282 279 282 284 287 287 289
267 277 271 259 250 242 242 250 244 248 243 243 247 246 252 245 241 234 234 243 246 238 240 248 253 244 247 250 255 260 266 273 275 280 279 291 282 289 294 290 291 285 284 287 289
262 274 279 250 255 241 238 247 255 252 235 245 238 262 240 235 237 234 236 241 239 240 241 243 244 245 250 253 255 264 264 271 278 280 282 281 284 289 294 290 292 299 298 297 298
255 268 276 254 256 242 222 238 241 242 240 249 241 231 227 237 242 228 234 245 242 239 247 247 253 251 255 255 256 259 266 279 282 281 276 277 279 284 287 294 299 300 302 301 301
247 259 268 267 243 233 233 245 240 238 261 249 239 222 226 232 238 228 227 231 234 234 238 245 247 254 255 250 253 261 260 269 271 271 274 285 277 280 294 301 303 302 306 304 305
235 252 263 279 258 234 241 234 240 243 247 263 243 218 233 225 242 231 229 234 238 243 236 243 250 247 253 257 255 250 262 265 268 270 275 283 278 287 297 298 301 304 304 304 304
221 245 260 272 259 248 236 235 246 248 245 254 231 221 234 232 240 231 236 239 238 240 247 246 254 253 248 260 246 256 258 274 276 282 279 280 284 292 296 297 298 298 295 300 304
231 245 262 267 264 254 239 242 249 250 243 246 243 236 234 226 235 237 236 245 240 240 260 252 250 254 254 258 257 259 257 264 270 271 275 280 281 284 294 293 297 296 293 298 304
238 247 260 276 267 246 233 236 248 254 248 241 248 247 243 231 241 237 238 254 236 236 254 255 257 250 249 251 249 257 258 267 272 277 275 278 282 295 294 299 298 294 294 300 303
248 244 256 262 242 248 240 240 245 248 251 248 254 265 252 239 238 238 242 256 235 228 242 252 259 250 249 262 264 257 264 262 268 272 274 278 277 303 306 308 304 299 299 301 301
250 251 261 259 241 238 244 246 249 247 251 248 252 259 270 257 245 243 242 243 230 231 237 244 255 254 256 264 264 261 260 264 272 279 270 270 280 296 302 303 302 299 297 297 298
263 248 253 254 262 248 243 245 248 257 251 254 253 261 265 264 257 240 237 240 236 238 257 251 256 258 255 265 260 258 257 259 262 267 271 269 278 288 294 293 294 295 294 293 294
269 259 255 248 250 254 251 250 247 253 257 253 254 254 258 258 258 244 241 242 241 243 243 251 256 261 268 271 268 266 258 255 258 263 269 277 278 284 288 290 291 293 291 291 294
281 273 262 259 261 252 255 251 250 252 253 251 253 249 253 256 258 247 246 244 244 240 240 252 260 260 265 272 273 270 269 265 262 265 269 275 279 286 294 289 288 287 289 289 292
273 274 274 262 258 254 254 256 255 252 256 258 252 249 251 256 260 261 261 254 256 241 237 245 253 258 261 268 275 272 268 270 272 267 271 272 277 283 280 281 285 286 287 288 290